[[{"header":{"parameterUnit":"m.s-1","parameterCategory":1,"la1":30.2991,"la2":30.254,"lo1":-89.0895,"lo2":-89.0444,"dy":0.0017,"dx":0.0017,"nx":28,"ny":28,"refTime":"2024-06-11T03:00:00:Z","depth":0,"parameterNumber":2,"parameterNumberName":"U-component_of_WINDS"},"data":[0,0,0,0,0,0,0,0,0,0,0,0,0,0,0,0,0,0,0,0,0,0,0,0,0,0,0,0,0,0,0,0,0,0,0,0,0,0,0,0,0,0,0,0,0,0,0,0,0,0,0,0,0,0,0,0,0,0,1.4876,1.4875,0,1.4739,1.4738,1.4736,1.4574,1.4572,1.4569,1.4567,1.4429,1.4428,1.4427,0,0,0,0,0,0,0,0,0,0,0,0,0,1.5001,1.4999,1.4877,1.4875,1.4873,1.4739,1.4737,1.4736,1.4575,1.4572,1.4569,1.4566,1.443,1.4428,1.4426,0,0,0,0,0,0,0,0,0,0,0,0,0,1.4914,1.4999,1.4877,1.4776,1.4766,1.474,1.4737,1.4735,1.4575,1.4571,1.4568,1.4564,1.443,1.4428,1.4426,1.4488,0,0,1.442,1.4419,0,0,0,0,0,0,0,0,1.4919,1.4909,1.4793,1.4783,1.4772,1.467,1.4731,1.4652,1.4576,1.4648,1.4567,1.4562,1.4513,1.4504,1.4486,1.4482,1.4476,1.442,1.4419,1.4418,1.4417,0,0,0,0,0,0,0,1.4925,1.4914,1.4822,1.4791,1.4779,1.4739,1.4722,1.4715,1.4603,1.4641,1.4629,1.4615,1.4506,1.4488,1.4482,1.4474,1.442,1.4418,1.4417,1.4416,1.451,1.4514,0,0,0,0,0,0,1.4946,1.492,1.4826,1.4818,1.4837,1.474,1.4721,1.4706,1.4602,1.4583,1.4618,1.4608,1.4494,1.4484,1.4476,1.4538,1.4418,1.4416,1.4415,1.4506,1.4511,1.4515,0,0,0,0,0,0,1.4949,1.4939,1.4832,1.4866,1.4849,1.4741,1.4726,1.4706,1.4687,1.4585,1.4564,1.4621,1.449,1.4479,1.4485,1.4531,1.4415,1.4413,1.4502,1.4508,1.4513,1.4666,0,0,0,0,0,0,1.4953,1.4941,1.4963,1.4867,1.4848,1.4843,1.4729,1.4706,1.4684,1.4669,1.4582,1.4564,1.4487,1.4489,1.4483,1.4526,1.4412,1.4497,1.4505,1.4511,1.4656,1.4676,1.4693,0,0,0,0,0,1.4958,1.5013,1.4965,1.4955,1.4873,1.4846,1.4835,1.4744,1.4689,1.4709,1.4644,1.4566,1.4528,1.4491,1.4483,1.4526,1.4494,1.4503,1.4511,1.4648,1.4672,1.4692,0,0,0,0,0,0,1.5118,1.4999,1.4944,1.4969,1.4919,1.4819,1.4843,1.4774,1.4739,1.4726,1.4616,1.4598,1.4617,1.4573,1.4534,1.4579,1.45,1.4507,1.4607,1.4629,1.4647,1.4655,1.441,0,0,0,0,0,1.5156,1.5144,1.504,1.5073,1.505,1.4952,1.4937,1.4871,1.4815,1.4793,1.4727,1.4676,1.4652,1.4639,1.4611,1.465,1.4627,1.4676,1.4694,1.471,1.4716,1.473,1.4749,1.4542,1.4542,1.4542,0,0,1.5234,1.5168,1.5167,1.5103,1.5056,1.5045,1.4935,1.4929,1.4919,1.4792,1.4792,1.4743,1.4679,1.4701,1.4708,1.4665,1.4769,1.4721,1.4734,1.4731,1.4741,1.476,1.4778,1.4548,1.4547,1.4546,0,0,1.537,1.532,1.5339,1.5295,1.5225,1.5159,1.5164,1.5075,1.5036,1.5035,1.4938,1.4927,1.4889,1.4846,1.4819,1.494,1.4866,1.4935,1.5029,1.5044,1.506,1.5074,1.5113,1.5129,1.4942,1.4942,1.4943,0,1.5476,1.5455,1.5359,1.5357,1.5331,1.5216,1.5233,1.5196,1.5122,1.5106,1.506,1.5007,1.4957,1.4965,1.4994,1.4978,1.4979,1.4942,1.5065,1.5078,1.509,1.5126,1.5141,1.4951,1.495,1.4949,1.4948,0,1.5587,1.5575,1.5599,1.5528,1.5505,1.5515,1.5419,1.5408,1.5345,1.5284,1.5284,1.5219,1.5174,1.5173,1.5112,1.5172,1.5147,1.5086,1.5002,1.5119,1.5151,1.5165,1.4963,1.496,1.4957,1.4955,0,0,1.5817,1.5692,1.5702,1.5667,1.5583,1.5571,1.5575,1.5531,1.5522,1.5476,1.5474,1.5445,1.5386,1.5356,1.529,1.5304,1.5398,1.5239,1.5235,1.5267,1.5457,1.5501,1.5519,1.5351,1.5354,1.5355,1.5461,0,1.5934,1.5931,1.5844,1.5866,1.5852,1.5742,1.5745,1.5694,1.5638,1.5618,1.5556,1.5535,1.5461,1.5441,1.5451,1.5385,1.5434,1.5377,1.5347,1.5347,1.5362,1.5536,1.5583,1.5685,1.5473,1.5475,1.5477,0,1.6069,1.6028,1.6049,1.5961,1.5952,1.5956,1.5907,1.589,1.5829,1.5787,1.5754,1.5679,1.5676,1.5601,1.5594,1.5557,1.5541,1.5507,1.5509,1.5499,1.5416,1.5527,1.5716,1.573,1.5496,1.5495,1.5493,0,1.6229,1.618,1.6184,1.6159,1.6058,1.6063,1.6022,1.5957,1.5936,1.5894,1.5878,1.5839,1.5816,1.5786,1.5702,1.5656,1.5704,1.5623,1.5667,1.567,1.5679,1.5679,1.5864,1.5676,1.5676,1.5676,1.5676,0,1.6365,1.6381,1.6254,1.6257,1.6271,1.6172,1.6189,1.6137,1.6081,1.6071,1.5976,1.5969,1.586,1.5841,1.5776,1.5778,1.577,1.5735,1.5716,1.5741,1.5745,1.5725,1.5714,1.568,1.5679,1.5678,1.5678,0,1.6544,1.646,1.6457,1.6363,1.6339,1.6353,1.6272,1.627,1.6209,1.6198,1.6189,1.6093,1.6065,1.5979,1.5931,1.5887,1.5908,1.5876,1.5928,1.5915,1.5963,1.5958,1.6138,1.6156,1.5962,1.5964,1.5966,0,1.6634,1.6643,1.6549,1.6535,1.6498,1.6477,1.6454,1.6358,1.6338,1.627,1.6276,1.6241,1.6207,1.6168,1.6093,1.6056,1.6019,1.6085,1.6013,1.6036,1.6015,1.6014,1.6013,1.61,1.6102,1.6105,1.6106,0,1.6802,1.676,1.673,1.6686,1.6661,1.6622,1.6578,1.6572,1.6465,1.6447,1.6417,1.6391,1.6341,1.6306,1.6256,1.6213,1.6141,1.613,1.6138,1.616,1.6188,1.6169,1.5966,1.6125,1.6124,1.6122,1.6121,1.612,1.6936,1.6938,1.6871,1.6841,1.6798,1.6758,1.6751,1.6688,1.6661,1.6612,1.6558,1.6533,1.6472,1.6397,1.636,1.6339,1.6301,1.6313,1.6315,1.6318,1.6328,1.6195,1.633,1.633,1.6329,1.6329,1.6328,0,1.7095,1.7047,1.702,1.696,1.6936,1.6872,1.6819,1.6803,1.6783,1.6731,1.67,1.6665,1.6631,1.6555,1.6513,1.6511,1.6477,1.6503,1.65,1.6491,1.6367,1.6362,1.6531,1.6531,1.6531,1.6531,1.6531,1.6531,1.7174,1.7173,1.7124,1.71,1.7052,1.7026,1.7001,1.6964,1.6922,1.6887,1.6857,1.6808,1.6746,1.6699,1.6665,1.6643,1.6631,1.6667,1.6635,1.6519,1.65,1.6481,1.6476,1.6667,1.6667,1.6759,1.676,1.6761]},{"header":{"parameterUnit":"m.s-1","parameterCategory":1,"la1":30.2991,"la2":30.254,"lo1":-89.0895,"lo2":-89.0444,"dy":0.0017,"dx":0.0017,"nx":28,"ny":28,"refTime":"2024-06-11T03:00:00:Z","depth":0,"parameterNumber":3,"parameterNumberName":"V-component_of_WINDS"},"data":[0,0,0,0,0,0,0,0,0,0,0,0,0,0,0,0,0,0,0,0,0,0,0,0,0,0,0,0,0,0,0,0,0,0,0,0,0,0,0,0,0,0,0,0,0,0,0,0,0,0,0,0,0,0,0,0,0,0,2.9327,2.9327,0,2.938,2.938,2.9381,2.9367,2.9366,2.9365,2.9364,2.941,2.9412,2.9415,0,0,0,0,0,0,0,0,0,0,0,0,0,2.9206,2.9209,2.9327,2.9327,2.9328,2.9379,2.938,2.9381,2.9367,2.9366,2.9364,2.9363,2.941,2.9412,2.9415,0,0,0,0,0,0,0,0,0,0,0,0,0,2.9259,2.9209,2.9327,2.9327,2.9328,2.9379,2.938,2.9381,2.9367,2.9366,2.9364,2.9363,2.9409,2.9412,2.9415,2.9466,0,0,2.9425,2.9427,0,0,0,0,0,0,0,0,2.9256,2.9263,2.9327,2.9327,2.9328,2.9365,2.9355,2.9409,2.9368,2.9352,2.9364,2.9362,2.9396,2.94,2.9413,2.9469,2.9471,2.9426,2.9428,2.9429,2.943,0,0,0,0,0,0,0,2.9252,2.9261,2.9347,2.9328,2.9329,2.9323,2.9329,2.9365,2.9382,2.9353,2.9352,2.9359,2.9396,2.941,2.9414,2.9471,2.9425,2.9428,2.943,2.9432,2.957,2.9571,0,0,0,0,0,0,2.9249,2.9258,2.9346,2.9349,2.9288,2.9326,2.9333,2.9355,2.9381,2.9384,2.9361,2.9358,2.9405,2.941,2.9416,2.9476,2.9429,2.9432,2.9434,2.9568,2.957,2.9572,0,0,0,0,0,0,2.9246,2.9257,2.9343,2.9303,2.9314,2.933,2.9355,2.9357,2.9371,2.9387,2.9389,2.9372,2.9404,2.9411,2.9454,2.9478,2.9434,2.9437,2.9566,2.9569,2.9571,2.9598,0,0,0,0,0,0,2.9243,2.9256,2.9277,2.9304,2.9316,2.9383,2.9356,2.9359,2.9377,2.9375,2.9399,2.9401,2.9404,2.9449,2.9457,2.9481,2.9439,2.9564,2.9567,2.957,2.9595,2.9601,2.9607,0,0,0,0,0,2.9239,2.9281,2.9279,2.9289,2.9343,2.9384,2.9391,2.9395,2.9379,2.9399,2.941,2.94,2.9475,2.9454,2.9463,2.9488,2.9562,2.9566,2.957,2.9593,2.96,2.9606,0,0,0,0,0,0,2.9254,2.9285,2.9282,2.9335,2.9358,2.9382,2.9408,2.9403,2.9429,2.9425,2.9428,2.9433,2.9477,2.9487,2.9463,2.9538,2.9516,2.9521,2.953,2.9537,2.9543,2.9538,2.9442,0,0,0,0,0,2.9264,2.9298,2.9322,2.9366,2.9378,2.9391,2.9409,2.9411,2.9433,2.9442,2.9455,2.9475,2.9503,2.9521,2.9548,2.9598,2.9601,2.9619,2.9625,2.963,2.9634,2.9659,2.9667,2.9584,2.9584,2.9584,0,0,2.9284,2.9305,2.9326,2.937,2.9387,2.9419,2.9399,2.9434,2.9456,2.9446,2.9488,2.9499,2.9521,2.9567,2.9588,2.9577,2.9658,2.9634,2.9638,2.9639,2.9664,2.9672,2.9678,2.9587,2.9586,2.9586,0,0,2.9337,2.9357,2.9396,2.9415,2.9443,2.9452,2.9461,2.9487,2.9494,2.9537,2.9529,2.9556,2.9604,2.962,2.9634,2.9694,2.9685,2.9703,2.9731,2.9756,2.9763,2.9768,2.9787,2.9795,2.9707,2.9707,2.9707,0,2.9357,2.9408,2.9416,2.9452,2.947,2.9466,2.9503,2.952,2.9554,2.9566,2.9554,2.9615,2.9629,2.9679,2.9693,2.9706,2.9715,2.9699,2.9762,2.9767,2.9773,2.9791,2.9798,2.9709,2.9709,2.9709,2.9709,0,2.943,2.9465,2.9493,2.9529,2.9551,2.9587,2.9598,2.9619,2.962,2.9629,2.9671,2.9689,2.9719,2.9731,2.9731,2.978,2.9772,2.9761,2.9738,2.9782,2.9799,2.9807,2.9712,2.9711,2.9711,2.971,0,0,2.9491,2.9533,2.9542,2.9559,2.959,2.9616,2.9651,2.9683,2.97,2.9724,2.9752,2.9794,2.9784,2.98,2.9802,2.9824,2.9868,2.981,2.981,2.9818,2.9921,2.9928,2.9936,2.9864,2.9865,2.9866,2.9918,0,2.9544,2.961,2.9619,2.9675,2.9707,2.9704,2.9734,2.9756,2.9766,2.9791,2.9801,2.983,2.9816,2.9826,2.9848,2.9858,2.9888,2.9855,2.9887,2.9888,2.9879,2.9945,2.9952,3.0001,2.9925,2.9927,2.9927,0,2.9615,2.9644,2.9704,2.9732,2.9745,2.9773,2.9802,2.9828,2.9852,2.9857,2.9877,2.9876,2.991,2.9888,2.9933,2.9911,2.9924,2.9931,2.9933,2.9934,2.9908,2.9945,3.0016,3.0023,2.9938,2.9938,2.9937,0,2.965,2.9704,2.9747,2.9761,2.9795,2.9814,2.9828,2.9851,2.9869,2.9895,2.9906,2.9934,2.9949,2.997,2.9975,2.9959,3.002,2.9999,3.0023,3.0023,3.0034,3.0033,3.0106,3.0047,3.0047,3.0047,3.0047,0,2.9707,2.9744,2.9764,2.979,2.983,2.984,2.9879,2.9892,2.9912,2.9939,2.9938,2.9962,2.997,2.9995,3.0,3.0036,3.0043,3.0046,3.0047,3.0045,3.0044,3.0052,3.0048,3.0049,3.0049,3.0048,3.0048,0,2.9752,2.9768,2.9814,2.9843,2.9851,2.988,2.9903,2.9927,2.9938,2.9972,2.998,2.9995,3.0025,3.0034,3.0069,3.0072,3.0114,3.0113,3.0107,3.0106,3.0129,3.0126,3.0208,3.0218,3.0155,3.0156,3.0156,0,2.9786,2.9815,2.9848,2.9867,2.9883,2.9914,2.9934,2.9944,2.9964,2.9993,3.0013,3.0044,3.0068,3.0116,3.0128,3.0155,3.0152,3.0179,3.0156,3.0153,3.015,3.0147,3.0149,3.0183,3.0183,3.0184,3.0184,0,2.9844,2.9851,2.9881,2.9914,2.9938,2.9963,2.9987,3.0003,3.0016,3.0038,3.007,3.009,3.0127,3.0156,3.0184,3.0195,3.0191,3.0192,3.0199,3.0196,3.0191,3.0192,3.0116,3.0189,3.0189,3.0188,3.0188,3.0188,2.9883,2.9908,2.9936,2.9969,2.9989,3.0012,3.0036,3.0051,3.0079,3.0112,3.0116,3.015,3.0172,3.0209,3.0223,3.0247,3.0239,3.0249,3.0251,3.0253,3.0254,3.0189,3.0253,3.0253,3.0252,3.0252,3.0252,0,2.9939,2.9957,2.9988,3.0024,3.0049,3.0047,3.0074,3.0095,3.0126,3.0148,3.0174,3.021,3.0238,3.0254,3.0282,3.0299,3.0298,3.0306,3.0303,3.0306,3.0261,3.0251,3.0307,3.0307,3.0307,3.0306,3.0306,3.0306,2.9971,3.0013,3.0023,3.0074,3.0092,3.0127,3.0143,3.0163,3.0181,3.0223,3.0248,3.0259,3.0279,3.0308,3.0334,3.0337,3.0346,3.0355,3.0358,3.0315,3.0309,3.0304,3.0295,3.0358,3.0358,3.04,3.0401,3.0401]}]]